map of SNZ home
SNZ - Airport
Location
City:  Rio de Janeiro, Rio de Janeiro, Brazil
Name:Santa Cruz AFB
Old (Alt.):Bartolomeu de Gusmão Airport
ICAO:SBSC
IATA:SNZ

Details
Type:Airport (Aerodrome, Airfield)
Use:Military
Latitude:22°55'56"S (-22.932349)
Longitude:43°43'09"W (-43.719091)
Datum:WGS 1984
Elevation:10 ft (3 m)
Variation:22.63°W (WMM2015v2 magnetic declination)
-0.08° annual change
Runways:1
Longest:8986 × 148 ft (2739 × 45 m), paved

Time
Time Zone:UTC-3 (DST-2)
Local Time:

Weather
METAR:SBSC 041400Z 17012KT 9999 SCT020 BKN040 28/23 Q1013 RETS
TAF:SBSC 040830Z 0412/0424 18007KT 9999 SCT030 TN27/0412Z TX30/0418Z PROB40 0412/0413 27009KT 8000 RA SCT010 BKN020
BECMG 0422/0424 SCT020
RMK PER

Related Locations
Nearby:
Farthest:IWO: 12101 mi / 19475 km
Iwo Jima [Iwo Jima AB], Iwo Jima Island, 13, JP

Find:

   beyond  
but within

Other Information
Maps:
NOTAMs:
Links:
Sources:

  
  • flag of Brazil
  • flag of Rio de Janeiro
  • flag of Rio de Janeiro
  

Sectional Chart

Flight Planning
at skyvector.com

Satellite Image

Google Maps Satellite view

 

Copyright © 2004-2019 Karl L. Swartz. All rights reserved.
The Great Circle Mapper name and logo are trademarks of the Great Circle Mapper.
All other trademarks mentioned herein belong to their respective owners.
Please see credits for attibutions and further copyright information.

  Follow gcmap on Facebook Follow gcmap on Twitter GCmap on LinkedIn

hCard Microformat

Geo Microformat